Date String (YYYY-MM-DD hh:mm:ss) UTC,Instrument flags,Ambient pressure (hPa),Sample flow (lpm),Bypass flow (lpm),Sample temperature (°C),Ambient temperature (°C),ASC tube jacket temperature (°C),LED temperature (°C),Box temperature (°C),Sample RH (%),Span deviation,Mass concentration (μg/m³),Mass concentration (μg/m³),Mass concentration (μg/m³)
DateTimeUTC,F1_M11,P_M11,Q1_M11,Q2_M11,T1_M11,T2_M11,T3_M11,T4_M11,T5_M11,U1_M11,ZSPAN_M11,X0_M11,X2_M11,X1_M11
2022-03-14 04:00:00,,0819.6,5.02,0.00,26.1,25.1,00.0,35.3,27.8,10.3,0000.0,0000.88,0000.54,0000.38
2022-03-14 04:01:00,,0819.7,4.99,0.00,26.1,25.0,00.0,35.2,27.6,10.3,0000.0,0000.83,0000.52,0000.38
2022-03-14 04:02:00,,0819.6,5.01,0.00,26.1,24.9,00.0,35.2,27.6,10.5,0000.0,0000.87,0000.53,0000.37
2022-03-14 04:03:00,,0819.6,5.01,0.00,26.1,24.9,00.0,35.2,27.6,10.7,0000.0,0000.85,0000.53,0000.37
2022-03-14 04:04:00,,0819.5,5.00,0.00,26.0,24.9,00.0,35.2,27.6,10.4,0000.0,0000.90,0000.54,0000.37
2022-03-14 04:05:00,,0819.5,4.99,0.00,26.0,24.9,00.0,35.2,27.6,10.4,0000.0,0000.88,0000.53,0000.36
2022-03-14 04:06:00,,0819.6,5.00,0.00,26.0,24.9,00.0,35.2,27.6,10.5,0000.0,0000.89,0000.53,0000.35
2022-03-14 04:07:00,,0819.5,5.00,0.00,26.0,24.8,00.0,35.1,27.5,10.7,0000.0,0000.87,0000.52,0000.35
2022-03-14 04:08:00,,0819.6,5.01,0.00,26.0,24.8,00.0,35.1,27.5,10.7,0000.0,0000.87,0000.52,0000.34
2022-03-14 04:09:00,,0819.6,5.00,0.00,26.0,24.8,00.0,35.1,27.5,10.7,0000.0,0000.89,0000.52,0000.34
2022-03-14 04:10:00,,0819.5,4.99,0.00,26.0,24.8,00.0,35.1,27.5,10.6,0000.0,0000.95,0000.54,0000.35
2022-03-14 04:11:00,,0819.6,4.99,0.00,25.9,24.8,00.0,35.1,27.5,10.4,0000.0,0000.92,0000.52,0000.35
2022-03-14 04:12:00,,0819.5,5.02,0.00,25.9,24.8,00.0,35.1,27.5,10.2,0000.0,0000.90,0000.52,0000.35
2022-03-14 04:13:00,,0819.5,5.00,0.00,25.9,24.8,00.0,35.0,27.4,10.2,0000.0,0000.84,0000.50,0000.35
2022-03-14 04:14:00,,0819.6,5.00,0.00,25.9,24.8,00.0,35.0,27.3,10.1,0000.0,0000.78,0000.47,0000.34
2022-03-14 04:15:00,,0819.7,4.99,0.00,25.8,24.7,00.0,35.0,27.3,10.3,0000.0,0000.69,0000.44,0000.34
2022-03-14 04:16:00,,0819.7,4.99,0.00,25.8,24.7,00.0,35.0,27.2,10.3,0000.0,0000.69,0000.44,0000.33
2022-03-14 04:17:00,,0819.8,5.01,0.00,25.8,24.7,00.0,35.0,27.3,10.4,0000.0,0000.71,0000.45,0000.33
2022-03-14 04:18:00,,0819.8,5.01,0.00,25.8,24.6,00.0,35.0,27.3,10.6,0000.0,0000.69,0000.43,0000.32
2022-03-14 04:19:00,,0819.8,5.00,0.00,25.8,24.6,00.0,35.0,27.3,10.6,0000.0,0000.66,0000.42,0000.31
2022-03-14 04:20:00,,0819.8,4.99,0.00,25.8,24.6,00.0,34.9,27.3,10.5,0000.0,0000.73,0000.45,0000.32
2022-03-14 04:21:00,,0819.8,5.01,0.00,25.7,24.6,00.0,34.9,27.2,10.6,0000.0,0000.68,0000.43,0000.31
2022-03-14 04:22:00,,0819.8,5.01,0.00,25.7,24.6,00.0,34.9,27.3,10.8,0000.0,0000.69,0000.43,0000.31
2022-03-14 04:23:00,,0819.8,5.00,0.00,25.7,24.6,00.0,34.9,27.3,10.8,0000.0,0000.69,0000.43,0000.31
2022-03-14 04:24:00,,0819.8,5.00,0.00,25.7,24.6,00.0,34.9,27.3,10.7,0000.0,0000.74,0000.45,0000.31
2022-03-14 04:25:00,,0819.8,5.01,0.00,25.7,24.6,00.0,34.9,27.3,10.8,0000.0,0000.75,0000.45,0000.31
2022-03-14 04:26:00,,0819.9,5.00,0.00,25.7,24.6,00.0,34.9,27.3,10.9,0000.0,0000.77,0000.46,0000.32
2022-03-14 04:27:00,,0819.9,5.00,0.00,25.7,24.6,00.0,34.9,27.3,10.8,0000.0,0000.75,0000.45,0000.32
2022-03-14 04:28:00,,0819.9,5.00,0.00,25.7,24.6,00.0,34.9,27.3,10.8,0000.0,0000.70,0000.44,0000.32
2022-03-14 04:29:00,,0819.9,5.01,0.00,25.7,24.6,00.0,34.8,27.4,11.1,0000.0,0000.68,0000.43,0000.32
2022-03-14 04:30:00,,0819.9,5.00,0.00,25.7,24.6,00.0,34.8,27.4,11.1,0000.0,0000.65,0000.43,0000.33
2022-03-14 04:31:00,,0819.9,4.99,0.00,25.7,24.6,00.0,34.8,27.4,11.0,0000.0,0000.54,0000.39,0000.34
2022-03-14 04:32:00,,0820.0,4.99,0.00,25.7,24.6,00.0,34.8,27.4,10.7,0000.0,0000.56,0000.40,0000.33
2022-03-14 04:33:00,,0820.0,5.00,0.00,25.7,24.6,00.0,34.8,27.4,10.7,0000.0,0000.58,0000.40,0000.33
2022-03-14 04:34:00,,0820.1,5.01,0.00,25.7,24.6,00.0,34.8,27.4,10.7,0000.0,0000.58,0000.40,0000.33
2022-03-14 04:35:00,,0820.1,5.00,0.00,25.7,24.6,00.0,34.8,27.4,10.8,0000.0,0000.54,0000.39,0000.33
2022-03-14 04:36:00,,0820.2,4.99,0.00,25.7,24.6,00.0,34.8,27.5,10.8,0000.0,0000.56,0000.41,0000.34
2022-03-14 04:37:00,,0820.2,5.00,0.00,25.8,24.7,00.0,34.8,27.5,10.7,0000.0,0000.55,0000.41,0000.34
2022-03-14 04:38:00,,0820.2,5.00,0.00,25.8,24.7,00.0,34.8,27.5,10.6,0000.0,0000.57,0000.42,0000.35
2022-03-14 04:39:00,,0820.2,5.02,0.00,25.8,24.7,00.0,34.8,27.5,10.4,0000.0,0000.57,0000.42,0000.34
2022-03-14 04:40:00,,0820.2,4.99,0.00,25.8,24.7,00.0,34.8,27.6,10.4,0000.0,0000.57,0000.42,0000.34
2022-03-14 04:41:00,,0820.3,4.99,0.00,25.8,24.8,00.0,34.8,27.6,10.3,0000.0,0000.58,0000.42,0000.35
2022-03-14 04:42:00,,0820.2,5.00,0.00,25.8,24.8,00.0,34.8,27.6,10.4,0000.0,0000.64,0000.43,0000.34
2022-03-14 04:43:00,,0820.3,5.00,0.00,25.8,24.9,00.0,34.8,27.6,10.2,0000.0,0000.71,0000.44,0000.33
2022-03-14 04:44:00,,0820.3,5.00,0.00,25.9,24.9,00.0,34.8,27.6,10.0,0000.0,0000.77,0000.46,0000.33
2022-03-14 04:45:00,,0820.4,5.00,0.00,25.9,24.9,00.0,34.8,27.7,09.9,0000.0,0000.76,0000.46,0000.33
2022-03-14 04:46:00,,0820.3,5.00,0.00,25.9,25.0,00.0,34.8,27.7,10.0,0000.0,0000.79,0000.46,0000.32
2022-03-14 04:47:00,,0820.3,5.00,0.00,25.9,25.0,00.0,34.8,27.6,09.9,0000.0,0000.76,0000.43,0000.31
2022-03-14 04:48:00,,0820.3,5.00,0.00,25.9,25.0,00.0,34.8,27.6,09.8,0000.0,0000.76,0000.42,0000.30
2022-03-14 04:49:00,,0820.3,5.00,0.00,25.9,25.0,00.0,34.9,27.6,09.9,0000.0,0000.78,0000.42,0000.30
2022-03-14 04:50:00,,0820.3,5.00,0.00,25.9,25.0,00.0,34.9,27.7,09.9,0000.0,0000.78,0000.41,0000.30
2022-03-14 04:51:00,,0820.4,5.00,0.00,25.9,25.0,00.0,34.9,27.7,09.8,0000.0,0000.76,0000.40,0000.29
2022-03-14 04:52:00,,0820.4,5.00,0.00,25.9,25.0,00.0,34.9,27.7,09.5,0000.0,0000.73,0000.38,0000.27
2022-03-14 04:53:00,,0820.4,5.00,0.00,25.9,25.0,00.0,34.9,27.7,09.7,0000.0,0000.66,0000.36,0000.27
2022-03-14 04:54:00,,0820.4,5.00,0.00,25.9,25.0,00.0,34.9,27.7,09.4,0000.0,0000.54,0000.33,0000.26
2022-03-14 04:55:00,,0820.5,5.00,0.00,25.9,25.0,00.0,34.8,27.7,09.5,0000.0,0000.46,0000.30,0000.25
2022-03-14 04:56:00,,0820.5,4.99,0.00,25.9,25.0,00.0,34.9,27.7,09.5,0000.0,0000.48,0000.30,0000.25
2022-03-14 04:57:00,,0820.6,5.01,0.00,25.9,25.1,00.0,34.9,27.8,09.6,0000.0,0000.49,0000.30,0000.24
2022-03-14 04:58:00,,0820.6,5.00,0.00,25.9,25.1,00.0,34.9,27.7,09.8,0000.0,0000.56,0000.31,0000.24
2022-03-14 04:59:00,,0820.6,5.00,0.00,25.9,25.1,00.0,34.9,27.7,09.8,0000.0,0000.57,0000.32,0000.23
